Regional Weather Roundup
Issued by NWS

Home | Current Version | Previous Version | Text Only | Print | Product List | Glossary Off
Versions: 1 2 3 4 5 6 7 8 9 10 11 12 13 14 15 16 17 18 19 20 21 22 23 24 25 26 27 28 29 30 31 32 33 34 35 36 37 38 39 40 41 42 43 44 45 46 47 48 49 50

339
ASUS43 KMPX 062210
RWRMN
WEATHER ROUNDUP FOR MINNESOTA
NATIONAL WEATHER SERVICE TWIN CITIES/CHANHASSEN MN
400 PM CST SAT FEB 06 2016


NOTE: "FAIR" INDICATES FEW OR NO CLOUDS BELOW 12,000 FEET WITH NO
SIGNIFICANT WEATHER AND/OR OBSTRUCTIONS TO VISIBILITY. N/A MEANS
CURRENT SKY AND/OR WEATHER CONDITIONS ARE NOT AVAILABLE.

MNZ060>063-068>070-062300-
   Twin Cities Metro

CITY           SKY/WX    TMP DP  RH WIND       PRES   REMARKS
TWIN CITIES    CLOUDY    35  25  66 S10G21    29.93F WCI  27
ST PAUL        CLOUDY    34  27  75 S13       29.95F WCI  25
CRYSTAL        CLOUDY    35  26  69 S16G22    29.90F WCI  25
LAKEVILLE      MOSUNNY   32  27  80 S10G16    29.94F WCI  24
EDEN PRAIRIE   CLOUDY    34  26  72 S16       29.91F WCI  24
SOUTH ST PAUL  CLOUDY    34  27  75 S14       29.94F WCI  25
LAKE ELMO      FAIR      34  30  86 S10G20    29.94F WCI  26
$$
MNZ001>005-007-008-013>017-022>024-027-028-062300-
   Northwest Minnesota

CITY           SKY/WX    TMP DP  RH WIND       PRES   REMARKS
BEMIDJI        CLOUDY    35  25  66 S7        29.66F WCI  30
HALLOCK        CLOUDY    34  30  86 S17       29.56F WCI  23
ROSEAU         CLOUDY    34  28  80 S12       29.62S WCI  25
WARROAD        CLOUDY    32  28  86 S9        29.63S WCI  24
THIEF RVR FALL CLOUDY    34  27  75 S12       29.63F WCI  25
CROOKSTON      CLOUDY    36  30  80 S16       29.64F
FOSSTON        CLOUDY    34  27  75 S16       29.65F WCI  23
DETROIT LAKES  CLOUDY    36  30  80 S12G17    29.68F
MOORHEAD       CLOUDY    36  30  80 S9        29.67F
PARK RAPIDS    CLOUDY    37  26  64 SW14      29.69F
MAHNOMEN       DRIZZLE   34  29  82 S15       29.66F WCI  24
$$
MNZ006-009>011-018-025>026-062300-
   North Central Minnesota

CITY           SKY/WX    TMP DP  RH WIND       PRES   REMARKS
BAUDETTE       LGT SNOW  31  28  89 SE10      29.63F FOG     WCI  22
FLAG ISLAND    LGT SNOW  28  25  86 SE8       29.63F WCI  20
INTL FALLS     LGT SNOW  32  25  75 SE8       29.69F VSB 3/4 WCI  25
WASKISH        CLOUDY    34  28  80 SE9       29.65F WCI  26
LONGVILLE      CLOUDY    36  25  64 S12G18    29.70F
GRAND RAPIDS   CLOUDY    34  25  69 S14       29.73F WCI  24
CRANE LAKE     CLOUDY    32  21  64 SE3       29.77S
ORR            CLOUDY    34  21  60 SE6       29.71F WCI  29
COOK           CLOUDY    34  25  69 S7        29.74F WCI  28
WALKER         MOCLDY    36  25  63 S8        29.68F
$$
MNZ012-019>021-037-062300-
   Northeast Minnesota

CITY           SKY/WX    TMP DP  RH WIND       PRES   REMARKS
DULUTH         CLOUDY    34  24  67 S14       29.80F WCI  25
ELY            CLOUDY    34  21  60 S7        29.76F WCI  28
HIBBING        LGT SNOW  31  27  85 S8        29.74F FOG     WCI  23
EVELETH        CLOUDY    34  27  75 S13       29.77F WCI  25
DULUTH HARBOR  MOSUNNY   37  27  65 SW21      29.84F
TWO HARBORS    CLOUDY    36  27  69 S5        29.80F
SILVER BAY     CLOUDY    30  25  80 CALM      29.81F
GRAND MARAIS     N/A     30  23  75 S8        29.89F WCI  22
G MARAIS ARPRT CLOUDY    23  19  86 SE8       29.82F FOG     WCI  14
$$
MNZ029>031-032-039>041-046>048-054>057-064-062300-
   West Central Minnesota

CITY           SKY/WX    TMP DP  RH WIND       PRES   REMARKS
FERGUS FALLS   PTSUNNY   36  30  80 S12       29.74F
WHEATON        RAIN      39  34  81 S7        29.76F
MORRIS         DRIZZLE   37  28  70 SW8       29.78F
ALEXANDRIA     CLOUDY    37  27  67 SW16      29.76F
ELBOW LAKE     CLOUDY    35  31  85 SW13      29.75F HAZE    WCI  26
WADENA         CLOUDY    36  27  69 SW10      29.72F
GLENWOOD       CLOUDY    36  28  75 S16       29.79S
APPLETON       DRIZZLE   37  28  70 SW10      29.80S
BENSON         MOSUNNY   39  28  65 W6        29.81R
ORTONVILLE     LGT RAIN  36  28  75 SW6       29.79S
MADISON        MOSUNNY   39  27  60 SW17      29.80F
WILLMAR        FAIR      37  28  70 S6        29.83F
$$
MNZ033>034-036-042>043-049>051-058-059-062300-
   Central Minnesota

CITY           SKY/WX    TMP DP  RH WIND       PRES   REMARKS
ST CLOUD       CLOUDY    36  26  67 S13       29.83F
SAUK CENTRE    FAIR      36  28  72 S14       29.78F
PAYNESVILLE    CLOUDY    36  28  73 S13G21    29.81F
AITKIN         PTSUNNY   36  23  60 S13       29.75F
PINE RIVER     CLOUDY    37  27  65 S10       29.76F
BRAINERD       PTSUNNY   36  25  64 S17       29.75F
STAPLES        CLOUDY    37  27  65 S12       29.74S
LONG PRAIRIE   PTSUNNY   36  28  75 S12       29.78S
LITTLE FALLS   PTSUNNY   37  27  65 S9        29.79F
LITCHFIELD     CLOUDY    37  28  70 S5        29.85F
BUFFALO        CLOUDY    34  27  74 S13G18    29.89F WCI  25
MAPLE LAKE     CLOUDY    37  29  74 S8G16     29.87F
$$
MNZ037-044-045-052-053-062300-
   East Central Minnesota

CITY           SKY/WX    TMP DP  RH WIND       PRES   REMARKS
PRINCETON      MOSUNNY   37  27  65 S12G18    29.86F
MORA           MOSUNNY   36  27  69 S12G17    29.87F
CAMBRIDGE      MOSUNNY   39  27  60 S14       29.86F
RUSH CITY      CLOUDY    34  27  74 S12       29.88F WCI  26
MOOSE LAKE     CLOUDY    34  27  75 S15       29.81F WCI  24
HINCKLEY       CLOUDY    34  28  80 S12       29.86F WCI  25
CLOQUET        CLOUDY    34  25  69 S9G15     29.81F WCI  26
MCGREGOR       CLOUDY    36  27  69 S14       29.78F
$$
MNZ071>073-080-081-089-090-097-098-062300-
   Southwest Minnesota

CITY           SKY/WX    TMP DP  RH WIND       PRES   REMARKS
MONTEVIDEO     CLOUDY    37  28  70 W9        29.83S
GRANITE FALLS  PTSUNNY   38  31  75 S15       29.84F
CANBY          CLOUDY    39  30  70 SW18G28   29.83F
MARSHALL       CLOUDY    37  25  61 SW20      29.83S
REDWOOD FALLS  CLOUDY    36  26  67 SW22      29.86F
OLIVIA         CLOUDY    36  30  80 S15       29.84F
PIPESTONE        N/A     36  21  55 SW18      29.86F
WINDOM         MOSUNNY   36  27  69 S21       29.89F
WORTHINGTON    CLOUDY    34  25  69 S22G29    29.90F WCI  22
JACKSON        MOSUNNY   36  27  69 S18G25    29.93F
TRACY          CLOUDY    34  27  77 SW22      29.85F WCI  22
SLAYTON        CLOUDY    32  28  86 SW22      29.87F WCI  19
$$
MNZ065>067-074>077-082>085-091>093-062300-
   South Central Minnesota

CITY           SKY/WX    TMP DP  RH WIND       PRES   REMARKS
MANKATO        CLOUDY    34  27  75 S10G17    29.93F WCI  26
NEW ULM        MOSUNNY   36  27  69 S15G21    29.89F
ST JAMES       CLOUDY    36  30  80 S23       29.91F
FAIRMONT       CLOUDY    34  27  75 S21       29.93F WCI  22
GLENCOE        CLOUDY    35  31  87 S12G18    29.89F WCI  26
FARIBAULT      MOSUNNY   32  28  86 S13       29.96F WCI  22
OWATONNA       MOSUNNY   32  27  80 S14       29.97F WCI  22
WASECA         PTSUNNY   32  28  86 S16       29.97F WCI  21
ALBERT LEA     MOSUNNY   30  27  86 S12       29.99F WCI  21
$$
MNZ078>079-086>088-094>096-062300-
   Southeast Minnesota

CITY           SKY/WX    TMP DP  RH WIND       PRES   REMARKS
ROCHESTER      CLOUDY    28  25  88 S18       30.00F FOG     WCI  15
RED WING       CLOUDY    34  25  69 S8        29.99F WCI  27
STANTON        CLOUDY    35  27  74 S10G18    29.95F WCI  27
DODGE CENTER   CLOUDY    28  27  93 S17       29.99F WCI  16
WINONA         CLOUDY    34  28  80 S5        30.06F WCI  30
AUSTIN         CLOUDY    28  27  93 S16       30.01F WCI  17
PRESTON        CLOUDY    28  24  86 S10       30.04F WCI  19
$$
ABBREVIATIONS USED IN REMARKS
   TC - TEMPERATURES IN CELSIUS
  WCI - WIND CHILL INDEX
   HX - HEAT INDEX
  VSB - VISIBILITY
$$




USA.gov is the U.S. government's official web portal to all federal, state and local government web resources and services.